sat.trackr.live / text

‹ back to catalog

STARLINK-34594

NORAD 65088 · 2025-167L

PAYLOAD ACTIVE UNKNOWN

§ Identity

Operator
Country
US
Launch date
2025-08-04
Launch site
AFETR
Launch vehicle
Mass (kg)
RCS (m²)

Purposes: comms

External: N2YO · Heavens-Above · Gunter

§ Orbital elements

Epoch: 2026-05-25T02:16:23.998080Z

Period
94.10 min
Inclination
53.1599°
Eccentricity
0.0001220
Mean motion
15.30223183 rev/d
Perigee alt
474.3 km
Apogee alt
476.0 km
Semi-major
6,853.3 km
B*
6.0875e-4
RAAN
32.0597°
Arg perigee
95.2031°
Mean anomaly
264.9109°
Rev number
4,517

§ Raw data

STARLINK-345941 65088U 25167L   26145.09472220  .00017726  00000+0  60875-3 0  99932 65088  53.1599  32.0597 0001220  95.2031 264.9109 15.30223183 45178

JSON: /api/v1/satellites/65088 · /tle

For live sub-satellite position, see the globe view (requires WebGL).

§ Visibility from observer

Set your observer location to see the next 7 days of passes ≥ 10°. The values pass through the URL so the page stays shareable.

No JS? Fill the form by hand. The geolocation button needs JavaScript.